Torna al catalogo

DISKSAT A

AttivoScienzaVLEO
NORAD 67222·PAYLOAD·🇺🇸 United States

Lanciato Dec 18, 2025 da Wallops Flight Facility

Loading…

Prossimi Passaggi (prossime 24 ore)

TLE

AggiornatoSource: Space-Track

Epoca: Sep 13, 2026, 21:48 UTC

1 67222U 25305D   26256.90885559  .00003076  00000-0  19897-3 0  9997
2 67222  45.0048 331.7523 0007107 304.6453  55.3753 15.10430844 40727

Traccia DISKSAT A in tempo reale con AllMySat

Download on the App Store